Time,TemperatureF,DewpointF,PressureIn,WindDirection,WindDirectionDegrees,WindSpeedMPH,WindSpeedGustMPH,Humidity,HourlyPrecipIn,Conditions,Clouds,dailyrainin,SolarRadiationWatts/m^2,SoftwareType,DateUTC
2013-11-07 00:00:00,40.5,39.2,29.85,SW,217,0.0,0.0,95,0.00,,OVC041,0.43,0.00,VWS V14.01,2013-11-07 05:00:00,
2013-11-07 00:01:00,40.3,39.0,29.86,SW,227,0.0,0.0,95,0.00,,OVC037,0.00,0.00,VWS V14.01,2013-11-07 05:01:00,
2013-11-07 00:06:00,40.2,38.9,29.86,WNW,290,0.0,0.0,95,0.00,,OVC037,0.00,0.00,VWS V14.01,2013-11-07 05:06:00,
2013-11-07 00:11:00,40.2,38.9,29.86,WNW,290,0.0,0.0,95,0.00,,OVC037,0.00,0.00,VWS V14.01,2013-11-07 05:11:00,
2013-11-07 00:16:00,40.2,38.9,29.87,WNW,285,0.0,0.0,95,0.00,,OVC037,0.00,0.00,VWS V14.01,2013-11-07 05:16:00,
2013-11-07 00:21:00,40.1,38.8,29.87,WNW,292,0.0,0.0,95,0.00,,OVC037,0.00,0.00,VWS V14.01,2013-11-07 05:21:00,
2013-11-07 00:26:00,39.9,38.6,29.87,WNW,292,0.0,0.0,95,0.00,,OVC037,0.00,0.00,VWS V14.01,2013-11-07 05:26:00,
2013-11-07 00:30:00,40.3,39.0,29.85,SW,225,0.0,0.0,95,0.00,,OVC041,0.00,0.00,VWS V14.01,2013-11-07 05:30:00,
2013-11-07 00:31:00,39.9,38.3,29.87,NNE,22,0.0,0.0,94,0.00,,OVC037,0.00,0.00,VWS V14.01,2013-11-07 05:31:00,
2013-11-07 00:36:00,39.8,38.2,29.87,NNW,348,0.0,0.0,94,0.00,,OVC037,0.00,0.00,VWS V14.01,2013-11-07 05:36:00,
2013-11-07 00:41:00,39.6,38.0,29.87,North,351,0.0,0.0,94,0.00,,OVC037,0.00,0.00,VWS V14.01,2013-11-07 05:41:00,
2013-11-07 00:46:00,39.5,37.9,29.87,WNW,292,0.0,0.0,94,0.00,,OVC037,0.00,0.00,VWS V14.01,2013-11-07 05:46:00,
2013-11-07 00:51:00,39.5,37.9,29.87,WNW,299,0.0,0.0,94,0.00,,OVC037,0.00,0.00,VWS V14.01,2013-11-07 05:51:00,
2013-11-07 00:56:00,39.3,37.5,29.87,WNW,296,0.0,0.0,93,0.00,,OVC037,0.00,0.00,VWS V14.01,2013-11-07 05:56:00,
2013-11-07 01:00:00,40.2,38.9,29.87,WNW,285,0.0,0.0,95,0.00,,OVC041,0.00,0.00,VWS V14.01,2013-11-07 06:00:00,
2013-11-07 01:01:00,39.3,37.5,29.88,WNW,296,0.0,0.0,93,0.00,,OVC039,0.00,0.00,VWS V14.01,2013-11-07 06:01:00,
2013-11-07 01:06:00,39.2,37.3,29.88,NW,310,0.0,0.0,93,0.00,,OVC039,0.00,0.00,VWS V14.01,2013-11-07 06:06:00,
2013-11-07 01:11:00,39.2,37.3,29.88,NW,308,0.0,0.0,93,0.00,,OVC039,0.00,0.00,VWS V14.01,2013-11-07 06:11:00,
2013-11-07 01:16:00,39.1,37.2,29.88,NW,308,0.0,0.0,93,0.00,,OVC039,0.00,0.00,VWS V14.01,2013-11-07 06:16:00,
2013-11-07 01:21:00,39.1,37.0,29.88,SSE,161,0.0,0.0,92,0.00,,OVC039,0.00,0.00,VWS V14.01,2013-11-07 06:21:00,
2013-11-07 01:26:00,39.1,37.0,29.88,North,349,0.0,0.0,92,0.00,,OVC039,0.00,0.00,VWS V14.01,2013-11-07 06:26:00,
2013-11-07 01:30:00,39.5,37.9,29.87,WNW,292,0.0,0.0,94,0.00,,OVC041,0.00,0.00,VWS V14.01,2013-11-07 06:30:00,
2013-11-07 01:31:00,39.1,36.7,29.88,West,276,0.0,0.0,91,0.00,,OVC039,0.00,0.00,VWS V14.01,2013-11-07 06:31:00,
2013-11-07 01:36:00,39.1,36.7,29.88,West,276,0.0,0.0,91,0.00,,OVC039,0.00,0.00,VWS V14.01,2013-11-07 06:36:00,
2013-11-07 01:41:00,38.9,36.2,29.88,West,275,0.0,0.0,90,0.00,,OVC039,0.00,0.00,VWS V14.01,2013-11-07 06:41:00,
2013-11-07 01:46:00,38.9,36.2,29.89,West,275,0.0,0.0,90,0.00,,OVC039,0.00,0.00,VWS V14.01,2013-11-07 06:46:00,
2013-11-07 01:51:00,38.8,36.1,29.89,West,275,0.0,0.0,90,0.00,,OVC039,0.00,0.00,VWS V14.01,2013-11-07 06:51:00,
2013-11-07 01:56:00,38.8,36.1,29.89,West,275,0.0,0.0,90,0.00,,OVC039,0.00,0.00,VWS V14.01,2013-11-07 06:56:00,
2013-11-07 02:00:00,39.1,37.2,29.88,NW,308,0.0,0.0,93,0.00,,OVC041,0.00,0.00,VWS V14.01,2013-11-07 07:00:00,
2013-11-07 02:01:00,38.6,35.6,29.89,West,275,0.0,0.0,89,0.00,,CLR,0.00,0.00,VWS V14.01,2013-11-07 07:01:00,
2013-11-07 02:06:00,38.3,35.1,29.89,WNW,290,0.0,0.0,88,0.00,,CLR,0.00,0.00,VWS V14.01,2013-11-07 07:06:00,
2013-11-07 02:17:00,38.0,34.5,29.90,WNW,293,0.0,0.0,87,0.00,,CLR,0.00,0.00,VWS V14.01,2013-11-07 07:17:00,
2013-11-07 02:22:00,37.9,34.4,29.90,WNW,293,0.0,0.0,87,0.00,,CLR,0.00,0.00,VWS V14.01,2013-11-07 07:22:00,
2013-11-07 02:27:00,37.8,34.3,29.90,WNW,293,0.0,0.0,87,0.00,,CLR,0.00,0.00,VWS V14.01,2013-11-07 07:27:00,
2013-11-07 02:30:00,38.9,36.2,29.89,West,275,0.0,0.0,90,0.00,,OVC041,0.00,0.00,VWS V14.01,2013-11-07 07:30:00,
2013-11-07 02:32:00,37.6,33.8,29.90,WNW,293,0.0,0.0,86,0.00,,CLR,0.00,0.00,VWS V14.01,2013-11-07 07:32:00,
2013-11-07 02:37:00,37.6,33.8,29.90,WNW,293,0.0,0.0,86,0.00,,CLR,0.00,0.00,VWS V14.01,2013-11-07 07:37:00,
2013-11-07 02:42:00,37.3,33.2,29.90,WNW,293,0.0,0.0,85,0.00,,CLR,0.00,0.00,VWS V14.01,2013-11-07 07:42:00,
2013-11-07 02:47:00,37.3,33.2,29.90,WNW,293,0.0,0.0,85,0.00,,CLR,0.00,0.00,VWS V14.01,2013-11-07 07:47:00,
2013-11-07 02:52:00,37.2,33.1,29.90,WNW,293,0.0,0.0,85,0.00,,CLR,0.00,0.00,VWS V14.01,2013-11-07 07:52:00,
2013-11-07 02:57:00,37.0,32.9,29.90,WNW,293,0.0,0.0,85,0.00,,CLR,0.00,0.00,VWS V14.01,2013-11-07 07:57:00,
2013-11-07 03:00:00,38.0,34.5,29.90,WNW,293,0.0,0.0,87,0.00,,OVC041,0.00,0.00,VWS V14.01,2013-11-07 08:00:00,
2013-11-07 03:02:00,36.9,32.8,29.91,WNW,285,0.0,0.0,85,0.00,,CLR,0.00,0.00,VWS V14.01,2013-11-07 08:02:00,
2013-11-07 03:07:00,36.8,32.7,29.91,WNW,285,0.0,0.0,85,0.00,,CLR,0.00,0.00,VWS V14.01,2013-11-07 08:07:00,
2013-11-07 03:12:00,36.6,32.5,29.91,WNW,285,0.0,0.0,85,0.00,,CLR,0.00,0.00,VWS V14.01,2013-11-07 08:12:00,
2013-11-07 03:17:00,36.3,31.9,29.91,WNW,285,0.0,0.0,84,0.00,,CLR,0.00,0.00,VWS V14.01,2013-11-07 08:17:00,
2013-11-07 03:22:00,36.2,31.8,29.91,WNW,285,0.0,0.0,84,0.00,,CLR,0.00,0.00,VWS V14.01,2013-11-07 08:22:00,
2013-11-07 03:27:00,36.0,31.6,29.91,WNW,285,0.0,0.0,84,0.00,,CLR,0.00,0.00,VWS V14.01,2013-11-07 08:27:00,
2013-11-07 03:30:00,37.3,33.2,29.90,WNW,293,0.0,0.0,85,0.00,,OVC041,0.00,0.00,VWS V14.01,2013-11-07 08:30:00,
2013-11-07 03:32:00,35.9,31.5,29.92,WNW,285,0.0,0.0,84,0.00,,CLR,0.00,0.00,VWS V14.01,2013-11-07 08:32:00,
2013-11-07 03:37:00,35.8,31.5,29.92,WNW,300,0.0,0.0,84,0.00,,CLR,0.00,0.00,VWS V14.01,2013-11-07 08:37:00,
2013-11-07 03:42:00,35.6,31.2,29.92,WNW,300,0.0,0.0,84,0.00,,CLR,0.00,0.00,VWS V14.01,2013-11-07 08:42:00,
2013-11-07 03:47:00,35.5,31.1,29.92,WNW,300,0.0,0.0,84,0.00,,CLR,0.00,0.00,VWS V14.01,2013-11-07 08:47:00,
2013-11-07 03:52:00,35.5,30.9,29.92,WNW,300,0.0,0.0,83,0.00,,CLR,0.00,0.00,VWS V14.01,2013-11-07 08:52:00,
2013-11-07 03:57:00,35.3,30.7,29.92,WNW,300,0.0,0.0,83,0.00,,CLR,0.00,0.00,VWS V14.01,2013-11-07 08:57:00,
2013-11-07 04:00:00,36.5,32.1,29.91,WNW,285,0.0,0.0,84,0.00,,OVC041,0.00,0.00,VWS V14.01,2013-11-07 09:00:00,
2013-11-07 04:02:00,35.3,30.7,29.92,WNW,300,0.0,0.0,83,0.00,,CLR,0.00,0.00,VWS V14.01,2013-11-07 09:02:00,
2013-11-07 04:06:00,35.3,30.7,29.92,WNW,300,0.0,0.0,83,0.00,,CLR,0.00,0.00,VWS V14.01,2013-11-07 09:06:00,
2013-11-07 04:11:00,35.2,30.6,29.92,WNW,300,0.0,0.0,83,0.00,,CLR,0.00,0.00,VWS V14.01,2013-11-07 09:11:00,
2013-11-07 04:16:00,35.2,30.6,29.92,WNW,300,0.0,0.0,83,0.00,,CLR,0.00,0.00,VWS V14.01,2013-11-07 09:16:00,
2013-11-07 04:21:00,35.0,30.4,29.92,WNW,300,0.0,0.0,83,0.00,,CLR,0.00,0.00,VWS V14.01,2013-11-07 09:21:00,
2013-11-07 04:26:00,35.0,30.1,29.92,NW,305,0.0,0.0,82,0.00,,CLR,0.00,0.00,VWS V14.01,2013-11-07 09:26:00,
2013-11-07 04:30:00,35.5,31.1,29.92,WNW,300,0.0,0.0,84,0.00,,OVC041,0.00,0.00,VWS V14.01,2013-11-07 09:30:00,
2013-11-07 04:31:00,34.9,30.0,29.93,NW,305,0.0,0.0,82,0.00,,CLR,0.00,0.00,VWS V14.01,2013-11-07 09:31:00,
2013-11-07 04:36:00,34.9,30.0,29.93,NW,305,0.0,0.0,82,0.00,,CLR,0.00,0.00,VWS V14.01,2013-11-07 09:36:00,
2013-11-07 04:41:00,34.7,29.8,29.93,NW,305,0.0,0.0,82,0.00,,CLR,0.00,0.00,VWS V14.01,2013-11-07 09:41:00,
2013-11-07 04:46:00,34.7,29.8,29.93,NW,305,0.0,0.0,82,0.00,,CLR,0.00,0.00,VWS V14.01,2013-11-07 09:46:00,
2013-11-07 04:51:00,34.7,29.8,29.93,NW,305,0.0,0.0,82,0.00,,CLR,0.00,0.00,VWS V14.01,2013-11-07 09:51:00,
2013-11-07 04:56:00,34.6,29.7,29.93,NW,305,0.0,0.0,82,0.00,,CLR,0.00,0.00,VWS V14.01,2013-11-07 09:56:00,
2013-11-07 05:00:00,35.2,30.6,29.92,WNW,300,0.0,0.0,83,0.00,,OVC041,0.00,0.00,VWS V14.01,2013-11-07 10:00:00,
2013-11-07 05:01:00,34.6,30.0,29.93,NW,305,0.0,0.0,83,0.00,,CLR,0.00,0.00,VWS V14.01,2013-11-07 10:01:00,
2013-11-07 05:06:00,34.4,29.8,29.93,NW,305,0.0,0.0,83,0.00,,CLR,0.00,0.00,VWS V14.01,2013-11-07 10:06:00,
2013-11-07 05:11:00,34.4,29.8,29.93,NW,305,0.0,0.0,83,0.00,,CLR,0.00,0.00,VWS V14.01,2013-11-07 10:11:00,
2013-11-07 05:16:00,34.4,29.8,29.94,NW,305,0.0,0.0,83,0.00,,CLR,0.00,0.00,VWS V14.01,2013-11-07 10:16:00,
2013-11-07 05:21:00,34.3,29.7,29.94,NW,305,0.0,0.0,83,0.00,,CLR,0.00,0.00,VWS V14.01,2013-11-07 10:21:00,
2013-11-07 05:26:00,34.3,29.7,29.94,NW,305,0.0,0.0,83,0.00,,CLR,0.00,0.00,VWS V14.01,2013-11-07 10:26:00,
2013-11-07 05:30:00,34.7,29.8,29.93,NW,305,0.0,0.0,82,0.00,,OVC041,0.00,0.00,VWS V14.01,2013-11-07 10:30:00,
2013-11-07 05:31:00,34.3,29.7,29.95,NW,305,0.0,0.0,83,0.00,,CLR,0.00,0.00,VWS V14.01,2013-11-07 10:31:00,
2013-11-07 05:36:00,34.1,29.8,29.95,NW,305,0.0,0.0,84,0.00,,CLR,0.00,0.00,VWS V14.01,2013-11-07 10:36:00,
2013-11-07 05:41:00,34.1,29.8,29.95,NW,305,0.0,0.0,84,0.00,,CLR,0.00,0.00,VWS V14.01,2013-11-07 10:41:00,
2013-11-07 05:46:00,34.0,29.7,29.95,NW,305,0.0,0.0,84,0.00,,CLR,0.00,0.00,VWS V14.01,2013-11-07 10:46:00,
2013-11-07 05:51:00,34.0,29.7,29.95,NW,305,0.0,0.0,84,0.00,,CLR,0.00,0.00,VWS V14.01,2013-11-07 10:51:00,
2013-11-07 05:56:00,33.8,29.5,29.95,NW,305,0.0,0.0,84,0.00,,CLR,0.00,0.00,VWS V14.01,2013-11-07 10:56:00,
2013-11-07 06:00:00,34.4,29.8,29.94,NW,305,0.0,0.0,83,0.00,,OVC041,0.00,0.00,VWS V14.01,2013-11-07 11:00:00,
2013-11-07 06:01:00,33.8,29.5,29.95,NW,305,0.0,0.0,84,0.00,,CLR,0.00,0.00,VWS V14.01,2013-11-07 11:01:00,
2013-11-07 06:06:00,33.7,29.4,29.95,NW,305,0.0,0.0,84,0.00,,CLR,0.00,0.00,VWS V14.01,2013-11-07 11:06:00,
2013-11-07 06:11:00,33.5,29.2,29.95,NW,305,0.0,0.0,84,0.00,,CLR,0.00,0.00,VWS V14.01,2013-11-07 11:11:00,
2013-11-07 06:16:00,33.5,29.2,29.96,NW,305,0.0,0.0,84,0.00,,CLR,0.00,0.00,VWS V14.01,2013-11-07 11:16:00,
2013-11-07 06:21:00,33.4,29.1,29.96,NW,305,0.0,0.0,84,0.00,,CLR,0.00,0.00,VWS V14.01,2013-11-07 11:21:00,
2013-11-07 06:26:00,33.2,28.9,29.96,NW,305,0.0,0.0,84,0.00,,CLR,0.00,0.00,VWS V14.01,2013-11-07 11:26:00,
2013-11-07 06:30:00,34.1,29.8,29.95,NW,305,0.0,0.0,84,0.00,,OVC041,0.00,0.00,VWS V14.01,2013-11-07 11:30:00,
2013-11-07 06:31:00,33.2,28.9,29.96,NW,305,0.0,0.0,84,0.00,,CLR,0.00,0.00,VWS V14.01,2013-11-07 11:31:00,
2013-11-07 06:34:00,33.2,28.9,29.96,NW,305,0.0,0.0,84,0.00,,CLR,0.00,0.00,VWS V14.01,2013-11-07 11:34:00,
2013-11-07 06:39:00,33.1,28.8,29.96,NW,305,0.0,0.0,84,0.00,,CLR,0.00,0.00,VWS V14.01,2013-11-07 11:39:00,
2013-11-07 06:44:00,32.9,28.6,29.96,NW,305,0.0,0.0,84,0.00,,CLR,0.00,0.00,VWS V14.01,2013-11-07 11:44:00,
2013-11-07 06:49:00,32.9,28.9,29.97,NW,305,0.0,0.0,85,0.00,,CLR,0.00,0.00,VWS V14.01,2013-11-07 11:49:00,
2013-11-07 06:54:00,32.8,28.8,29.97,NW,305,0.0,0.0,85,0.00,,CLR,0.00,0.00,VWS V14.01,2013-11-07 11:54:00,
2013-11-07 06:59:00,32.7,28.7,29.97,NW,305,0.0,0.0,85,0.00,,CLR,0.00,0.00,VWS V14.01,2013-11-07 11:59:00,
2013-11-07 07:00:00,33.5,29.2,29.96,NW,305,0.0,0.0,84,0.00,,OVC041,0.00,0.00,VWS V14.01,2013-11-07 12:00:00,
2013-11-07 07:04:00,32.5,28.5,29.97,NW,305,0.0,0.0,85,0.00,,CLR,0.00,0.00,VWS V14.01,2013-11-07 12:04:00,
2013-11-07 07:09:00,32.5,28.5,29.97,NW,305,0.0,0.0,85,0.00,,CLR,0.00,0.00,VWS V14.01,2013-11-07 12:09:00,
2013-11-07 07:14:00,32.4,28.4,29.97,NW,305,0.0,0.0,85,0.00,,CLR,0.00,0.00,VWS V14.01,2013-11-07 12:14:00,
2013-11-07 07:19:00,32.2,28.2,29.97,NW,305,0.0,0.0,85,0.00,,CLR,0.00,0.00,VWS V14.01,2013-11-07 12:19:00,
2013-11-07 07:24:00,32.1,28.1,29.97,NW,305,0.0,0.0,85,0.00,,CLR,0.00,0.00,VWS V14.01,2013-11-07 12:24:00,
2013-11-07 07:29:00,32.1,28.1,29.97,NW,305,0.0,0.0,85,0.00,,CLR,0.00,0.00,VWS V14.01,2013-11-07 12:29:00,
2013-11-07 07:30:00,32.9,28.6,29.97,NW,305,0.0,0.0,84,0.00,,OVC041,0.00,0.00,VWS V14.01,2013-11-07 12:30:00,
2013-11-07 07:34:00,31.9,27.9,29.98,NW,305,0.0,0.0,85,0.00,,CLR,0.00,5.00,VWS V14.01,2013-11-07 12:34:00,
2013-11-07 07:39:00,31.8,27.8,29.98,NW,305,0.0,0.0,85,0.00,,CLR,0.00,9.00,VWS V14.01,2013-11-07 12:39:00,
2013-11-07 07:44:00,31.8,28.1,29.98,NW,305,0.0,0.0,86,0.00,,CLR,0.00,12.00,VWS V14.01,2013-11-07 12:44:00,
2013-11-07 07:49:00,31.6,27.9,29.98,NW,305,0.0,0.0,86,0.00,,CLR,0.00,12.00,VWS V14.01,2013-11-07 12:49:00,
2013-11-07 07:54:00,31.6,27.9,29.98,NW,305,0.0,0.0,86,0.00,,CLR,0.00,16.00,VWS V14.01,2013-11-07 12:54:00,
2013-11-07 07:59:00,31.6,27.9,29.98,NW,305,0.0,0.0,86,0.00,,CLR,0.00,18.00,VWS V14.01,2013-11-07 12:59:00,
2013-11-07 08:00:00,32.4,28.4,29.97,NW,305,0.0,0.0,85,0.00,,OVC041,0.00,0.00,VWS V14.01,2013-11-07 13:00:00,
2013-11-07 08:03:00,31.6,28.2,29.98,NW,305,0.0,0.0,87,0.00,,CLR,0.00,19.00,VWS V14.01,2013-11-07 13:03:00,
2013-11-07 08:08:00,31.6,28.2,29.98,NW,305,0.0,0.0,87,0.00,,CLR,0.00,25.00,VWS V14.01,2013-11-07 13:08:00,
2013-11-07 08:13:00,31.8,28.4,29.98,NW,305,0.0,0.0,87,0.00,,CLR,0.00,25.00,VWS V14.01,2013-11-07 13:13:00,
2013-11-07 08:18:00,31.8,28.4,29.99,NW,305,0.0,0.0,87,0.00,,CLR,0.00,35.00,VWS V14.01,2013-11-07 13:18:00,
2013-11-07 08:23:00,31.9,28.8,29.99,NW,305,0.0,0.0,88,0.00,,CLR,0.00,53.00,VWS V14.01,2013-11-07 13:23:00,
2013-11-07 08:28:00,32.1,29.0,29.99,NW,305,0.0,0.0,88,0.00,,CLR,0.00,46.00,VWS V14.01,2013-11-07 13:28:00,
2013-11-07 08:30:00,31.8,28.1,29.98,NW,305,0.0,0.0,86,0.00,,OVC041,0.00,14.00,VWS V14.01,2013-11-07 13:30:00,
2013-11-07 08:33:00,32.4,29.5,29.99,NW,305,0.0,0.0,89,0.00,,CLR,0.00,40.00,VWS V14.01,2013-11-07 13:33:00,
2013-11-07 08:38:00,32.5,29.6,29.99,NW,305,0.0,0.0,89,0.00,,CLR,0.00,40.00,VWS V14.01,2013-11-07 13:38:00,
2013-11-07 08:43:00,32.8,29.9,29.99,SSE,168,0.0,0.0,89,0.00,,CLR,0.00,39.00,VWS V14.01,2013-11-07 13:43:00,
2013-11-07 08:48:00,33.1,30.2,29.99,SSE,168,0.0,0.0,89,0.00,,CLR,0.00,39.00,VWS V14.01,2013-11-07 13:48:00,
2013-11-07 08:53:00,33.4,30.8,29.99,NE,51,0.0,0.0,90,0.00,,CLR,0.00,32.00,VWS V14.01,2013-11-07 13:53:00,
2013-11-07 08:58:00,33.8,31.2,29.99,NE,51,0.0,0.0,90,0.00,,CLR,0.00,32.00,VWS V14.01,2013-11-07 13:58:00,
2013-11-07 09:00:00,31.8,28.4,29.99,NW,305,0.0,0.0,87,0.00,,OVC041,0.00,28.00,VWS V14.01,2013-11-07 14:00:00,
2013-11-07 09:03:00,34.1,31.5,29.99,East,82,0.0,0.0,90,0.00,,CLR,0.00,33.00,VWS V14.01,2013-11-07 14:03:00,
2013-11-07 09:08:00,34.4,31.8,29.99,East,82,0.0,0.0,90,0.00,,CLR,0.00,33.00,VWS V14.01,2013-11-07 14:08:00,
2013-11-07 09:13:00,34.7,32.1,29.99,SSW,211,0.0,0.0,90,0.00,,CLR,0.00,35.00,VWS V14.01,2013-11-07 14:13:00,
2013-11-07 09:18:00,35.2,32.6,29.99,SSW,211,0.0,0.0,90,0.00,,CLR,0.00,91.00,VWS V14.01,2013-11-07 14:18:00,
2013-11-07 09:23:00,35.5,32.9,29.99,WSW,240,0.0,0.0,90,0.00,,CLR,0.00,144.00,VWS V14.01,2013-11-07 14:23:00,
2013-11-07 09:28:00,35.9,33.3,29.99,East,101,0.0,0.0,90,0.00,,CLR,0.00,105.00,VWS V14.01,2013-11-07 14:28:00,
2013-11-07 09:30:00,33.1,30.2,29.99,SSE,168,0.0,0.0,89,0.00,,OVC041,0.00,35.00,VWS V14.01,2013-11-07 14:30:00,
2013-11-07 09:33:00,36.3,33.4,29.99,WSW,251,0.0,0.0,89,0.00,,CLR,0.00,148.00,VWS V14.01,2013-11-07 14:33:00,
2013-11-07 09:38:00,36.8,33.6,29.99,WSW,257,1.0,0.0,88,0.00,,CLR,0.00,46.00,VWS V14.01,2013-11-07 14:38:00,
2013-11-07 09:43:00,37.2,33.7,29.99,WNW,290,0.0,0.0,87,0.00,,CLR,0.00,62.00,VWS V14.01,2013-11-07 14:43:00,
2013-11-07 09:48:00,37.6,33.5,29.99,West,261,1.0,0.0,85,0.00,,CLR,0.00,56.00,VWS V14.01,2013-11-07 14:48:00,
2013-11-07 09:53:00,37.9,33.5,29.99,ESE,107,4.0,0.0,84,0.00,,CLR,0.00,81.00,VWS V14.01,2013-11-07 14:53:00,
2013-11-07 09:58:00,38.3,32.7,29.99,West,271,1.0,0.0,80,0.00,,CLR,0.00,62.00,VWS V14.01,2013-11-07 14:58:00,
2013-11-07 10:00:00,35.0,32.4,29.99,SSW,211,0.0,0.0,90,0.00,,OVC041,0.00,47.00,VWS V14.01,2013-11-07 15:00:00,
2013-11-07 10:03:00,38.8,32.5,30.00,WNW,293,0.0,0.0,78,0.00,,CLR,0.00,49.00,VWS V14.01,2013-11-07 15:03:00,
2013-11-07 10:08:00,39.2,31.6,30.00,West,275,0.0,0.0,74,0.00,,CLR,0.00,70.00,VWS V14.01,2013-11-07 15:08:00,
2013-11-07 10:13:00,39.5,31.2,30.00,WNW,283,0.0,0.0,72,0.00,,FEW029,0.00,76.00,VWS V14.01,2013-11-07 15:13:00,
2013-11-07 10:18:00,39.8,30.8,29.99,NE,53,0.0,0.0,70,0.00,,FEW029,0.00,74.00,VWS V14.01,2013-11-07 15:18:00,
2013-11-07 10:23:00,40.2,31.2,29.99,NW,320,0.0,0.0,70,0.00,,FEW029,0.00,120.00,VWS V14.01,2013-11-07 15:23:00,
2013-11-07 10:28:00,40.5,31.1,29.99,SW,229,0.0,0.0,69,0.00,,FEW029,0.00,70.00,VWS V14.01,2013-11-07 15:28:00,
2013-11-07 10:30:00,37.3,33.5,29.99,West,269,2.0,0.0,86,0.00,,OVC041,0.00,56.00,VWS V14.01,2013-11-07 15:30:00,
2013-11-07 10:33:00,40.6,30.9,30.00,South,184,3.0,0.0,68,0.00,,FEW029,0.00,62.00,VWS V14.01,2013-11-07 15:33:00,
2013-11-07 10:38:00,40.8,30.3,30.00,North,355,0.0,0.0,66,0.00,,FEW029,0.00,63.00,VWS V14.01,2013-11-07 15:38:00,
2013-11-07 10:43:00,40.9,30.4,30.00,West,280,0.0,0.0,66,0.00,,FEW029,0.00,54.00,VWS V14.01,2013-11-07 15:43:00,
2013-11-07 10:48:00,41.1,30.2,30.00,WNW,288,0.0,0.0,65,0.00,,FEW029,0.00,109.00,VWS V14.01,2013-11-07 15:48:00,
2013-11-07 10:53:00,41.1,29.9,30.00,NW,317,0.0,0.0,64,0.00,,FEW029,0.00,46.00,VWS V14.01,2013-11-07 15:53:00,
2013-11-07 10:58:00,41.2,30.0,30.00,WSW,240,0.0,0.0,64,0.00,,FEW029,0.00,47.00,VWS V14.01,2013-11-07 15:58:00,
2013-11-07 11:00:00,39.6,31.0,29.99,SE,135,0.0,0.0,71,0.00,,OVC041,0.00,58.00,VWS V14.01,2013-11-07 16:00:00,
2013-11-07 11:03:00,41.3,30.1,30.00,NNE,19,0.0,0.0,64,0.00,,FEW029,0.00,56.00,VWS V14.01,2013-11-07 16:03:00,
2013-11-07 11:08:00,41.5,30.2,30.00,NW,309,0.0,0.0,64,0.00,,FEW029,0.00,46.00,VWS V14.01,2013-11-07 16:08:00,
2013-11-07 11:13:00,41.5,29.5,30.00,NW,314,0.0,0.0,62,0.00,,FEW029,0.00,77.00,VWS V14.01,2013-11-07 16:13:00,
2013-11-07 11:18:00,41.8,29.4,30.00,NW,315,1.0,0.0,61,0.00,,FEW029,0.00,81.00,VWS V14.01,2013-11-07 16:18:00,
2013-11-07 11:23:00,41.9,29.5,30.00,NW,315,1.0,0.0,61,0.00,,FEW029,0.00,84.00,VWS V14.01,2013-11-07 16:23:00,
2013-11-07 11:28:00,42.1,29.6,30.00,NNW,329,0.0,0.0,61,0.00,,SCT033,0.00,47.00,VWS V14.01,2013-11-07 16:28:00,
2013-11-07 11:30:00,40.9,30.4,30.00,NNW,338,0.0,0.0,66,0.00,,OVC041,0.00,60.00,VWS V14.01,2013-11-07 16:30:00,
2013-11-07 11:33:00,42.1,30.0,30.00,WSW,250,0.0,0.0,62,0.00,,SCT033,0.00,35.00,VWS V14.01,2013-11-07 16:33:00,
2013-11-07 11:38:00,42.1,30.4,30.00,WNW,290,0.0,0.0,63,0.00,,SCT033,0.00,62.00,VWS V14.01,2013-11-07 16:38:00,
2013-11-07 11:43:00,42.1,30.0,30.00,NW,317,0.0,0.0,62,0.00,,SCT033,0.00,54.00,VWS V14.01,2013-11-07 16:43:00,
2013-11-07 11:48:00,42.2,29.7,30.00,SE,143,3.0,0.0,61,0.00,,SCT033,0.00,51.00,VWS V14.01,2013-11-07 16:48:00,
2013-11-07 11:53:00,42.2,28.5,30.00,NW,313,0.0,0.0,58,0.00,,SCT033,0.00,42.00,VWS V14.01,2013-11-07 16:53:00,
2013-11-07 11:58:00,42.3,28.6,30.00,WNW,296,0.0,0.0,58,0.00,,SCT033,0.00,44.00,VWS V14.01,2013-11-07 16:58:00,
2013-11-07 12:00:00,41.6,29.2,30.00,WNW,294,0.0,0.0,61,0.00,,OVC041,0.00,53.00,VWS V14.01,2013-11-07 17:00:00,
2013-11-07 12:03:00,42.5,28.4,29.99,WSW,251,0.0,0.0,57,0.00,,SCT033,0.00,54.00,VWS V14.01,2013-11-07 17:03:00,
2013-11-07 12:08:00,42.6,29.3,29.99,NW,319,0.0,0.0,59,0.00,,SCT033,0.00,172.00,VWS V14.01,2013-11-07 17:08:00,
2013-11-07 12:13:00,42.8,28.6,29.99,West,269,1.0,0.0,57,0.00,,SCT033,0.00,83.00,VWS V14.01,2013-11-07 17:13:00,
2013-11-07 12:18:00,42.8,28.6,29.99,WNW,301,0.0,0.0,57,0.00,,SCT033,0.00,185.00,VWS V14.01,2013-11-07 17:18:00,
2013-11-07 12:23:00,42.9,28.7,29.99,NW,321,0.0,0.0,57,0.00,,SCT033,0.00,47.00,VWS V14.01,2013-11-07 17:23:00,
2013-11-07 12:28:00,43.1,28.5,29.99,East,100,5.0,0.0,56,0.00,,SCT033,0.00,58.00,VWS V14.01,2013-11-07 17:28:00,
2013-11-07 12:30:00,42.2,30.5,30.00,NW,313,0.0,0.0,63,0.00,,OVC041,0.00,46.00,VWS V14.01,2013-11-07 17:30:00,
2013-11-07 12:33:00,43.1,28.0,29.99,West,275,0.0,0.0,55,0.00,,SCT033,0.00,97.00,VWS V14.01,2013-11-07 17:33:00,
2013-11-07 12:38:00,43.2,29.4,29.99,NW,312,1.0,0.0,58,0.00,,SCT033,0.00,67.00,VWS V14.01,2013-11-07 17:38:00,
2013-11-07 12:43:00,43.2,29.4,29.99,NNW,348,3.0,0.0,58,0.00,,SCT033,0.00,72.00,VWS V14.01,2013-11-07 17:43:00,
2013-11-07 12:48:00,43.3,29.1,29.98,WNW,287,0.0,0.0,57,0.00,,CLR,0.00,51.00,VWS V14.01,2013-11-07 17:48:00,
2013-11-07 12:53:00,43.3,28.7,29.98,WSW,240,1.0,0.0,56,0.00,,CLR,0.00,47.00,VWS V14.01,2013-11-07 17:53:00,
2013-11-07 12:58:00,43.3,28.7,29.98,NW,323,0.0,0.0,56,0.00,,CLR,0.00,53.00,VWS V14.01,2013-11-07 17:58:00,
2013-11-07 13:00:00,42.8,28.2,29.99,NW,316,2.0,0.0,56,0.00,,OVC041,0.00,102.00,VWS V14.01,2013-11-07 18:00:00,
2013-11-07 13:03:00,43.5,29.3,29.97,WSW,253,1.0,0.0,57,0.00,,CLR,0.00,83.00,VWS V14.01,2013-11-07 18:03:00,
2013-11-07 13:08:00,43.5,28.9,29.97,NW,316,0.0,0.0,56,0.00,,CLR,0.00,42.00,VWS V14.01,2013-11-07 18:08:00,
2013-11-07 13:13:00,43.3,29.1,29.97,SW,232,0.0,0.0,57,0.00,,CLR,0.00,47.00,VWS V14.01,2013-11-07 18:13:00,
2013-11-07 13:18:00,43.2,28.6,29.97,NW,316,0.0,0.0,56,0.00,,CLR,0.00,72.00,VWS V14.01,2013-11-07 18:18:00,
2013-11-07 13:23:00,43.3,30.0,29.97,WSW,245,1.0,0.0,59,0.00,,CLR,0.00,95.00,VWS V14.01,2013-11-07 18:23:00,
2013-11-07 13:28:00,43.3,30.8,29.97,NW,306,0.0,0.0,61,0.00,,CLR,0.00,76.00,VWS V14.01,2013-11-07 18:28:00,
2013-11-07 13:30:00,43.3,30.0,29.98,West,271,0.0,0.0,59,0.00,,OVC041,0.00,69.00,VWS V14.01,2013-11-07 18:30:00,
2013-11-07 13:33:00,43.3,30.4,29.96,West,266,1.0,0.0,60,0.00,,CLR,0.00,77.00,VWS V14.01,2013-11-07 18:33:00,
2013-11-07 13:38:00,43.3,30.8,29.96,WSW,254,1.0,0.0,61,0.00,,CLR,0.00,134.00,VWS V14.01,2013-11-07 18:38:00,
2013-11-07 13:43:00,43.6,31.0,29.96,NE,46,0.0,0.0,61,0.00,,CLR,0.00,332.00,VWS V14.01,2013-11-07 18:43:00,
2013-11-07 13:48:00,43.9,31.3,29.96,WSW,238,0.0,0.0,61,0.00,,CLR,0.00,142.00,VWS V14.01,2013-11-07 18:48:00,
2013-11-07 13:53:00,43.8,31.6,29.96,WNW,300,0.0,0.0,62,0.00,,CLR,0.00,128.00,VWS V14.01,2013-11-07 18:53:00,
2013-11-07 13:58:00,43.8,31.6,29.96,WSW,257,0.0,0.0,62,0.00,,CLR,0.00,121.00,VWS V14.01,2013-11-07 18:58:00,
2013-11-07 14:00:00,43.3,28.7,29.97,West,265,1.0,0.0,56,0.00,,OVC041,0.00,86.00,VWS V14.01,2013-11-07 19:00:00,
2013-11-07 14:03:00,43.8,31.2,29.97,South,183,1.0,0.0,61,0.00,,CLR,0.00,116.00,VWS V14.01,2013-11-07 19:03:00,
2013-11-07 14:08:00,43.6,31.9,29.97,WSW,254,0.0,0.0,63,0.00,,CLR,0.00,320.00,VWS V14.01,2013-11-07 19:08:00,
2013-11-07 14:13:00,43.6,32.2,29.97,WNW,286,0.0,0.0,64,0.00,,CLR,0.00,174.00,VWS V14.01,2013-11-07 19:13:00,
2013-11-07 14:18:00,43.5,32.2,29.96,WNW,283,0.0,0.0,64,0.00,,CLR,0.00,88.00,VWS V14.01,2013-11-07 19:18:00,
2013-11-07 14:23:00,43.5,32.2,29.96,West,274,0.0,0.0,64,0.00,,CLR,0.00,100.00,VWS V14.01,2013-11-07 19:23:00,
2013-11-07 14:28:00,43.5,32.2,29.96,NE,44,2.0,0.0,64,0.00,,CLR,0.00,165.00,VWS V14.01,2013-11-07 19:28:00,
2013-11-07 14:30:00,43.9,31.7,29.96,NW,318,0.0,0.0,62,0.00,,OVC041,0.00,132.00,VWS V14.01,2013-11-07 19:30:00,
2013-11-07 14:33:00,43.5,31.8,29.96,SW,228,0.0,0.0,63,0.00,,CLR,0.00,125.00,VWS V14.01,2013-11-07 19:33:00,
2013-11-07 14:38:00,43.6,31.9,29.96,WSW,238,0.0,0.0,63,0.00,,CLR,0.00,128.00,VWS V14.01,2013-11-07 19:38:00,
2013-11-07 14:43:00,43.6,31.9,29.96,WNW,296,0.0,0.0,63,0.00,,CLR,0.00,137.00,VWS V14.01,2013-11-07 19:43:00,
2013-11-07 14:48:00,43.8,32.0,29.96,NW,319,0.0,0.0,63,0.00,,CLR,0.00,139.00,VWS V14.01,2013-11-07 19:48:00,
2013-11-07 14:53:00,43.8,31.2,29.96,SE,138,0.0,0.0,61,0.00,,CLR,0.00,139.00,VWS V14.01,2013-11-07 19:53:00,
2013-11-07 14:58:00,43.9,31.7,29.96,NNE,17,0.0,0.0,62,0.00,,CLR,0.00,102.00,VWS V14.01,2013-11-07 19:58:00,
2013-11-07 15:00:00,43.6,32.6,29.96,WSW,258,0.0,0.0,65,0.00,,OVC041,0.00,100.00,VWS V14.01,2013-11-07 20:00:00,
2013-11-07 15:03:00,43.9,31.3,29.95,SSW,193,0.0,0.0,61,0.00,,CLR,0.00,125.00,VWS V14.01,2013-11-07 20:03:00,
2013-11-07 15:08:00,44.1,31.1,29.95,NE,47,0.0,0.0,60,0.00,,CLR,0.00,116.00,VWS V14.01,2013-11-07 20:08:00,
2013-11-07 15:13:00,44.1,31.1,29.95,North,5,0.0,0.0,60,0.00,,CLR,0.00,70.00,VWS V14.01,2013-11-07 20:13:00,
2013-11-07 15:18:00,44.1,31.1,29.95,West,271,0.0,0.0,60,0.00,,CLR,0.00,63.00,VWS V14.01,2013-11-07 20:18:00,
2013-11-07 15:23:00,43.9,30.5,29.95,WNW,283,0.0,0.0,59,0.00,,CLR,0.00,60.00,VWS V14.01,2013-11-07 20:23:00,
2013-11-07 15:28:00,43.8,30.0,29.95,South,179,0.0,0.0,58,0.00,,CLR,0.00,72.00,VWS V14.01,2013-11-07 20:28:00,
2013-11-07 15:30:00,43.8,32.0,29.96,WSW,244,0.0,0.0,63,0.00,,OVC041,0.00,169.00,VWS V14.01,2013-11-07 20:30:00,
2013-11-07 15:33:00,43.6,29.8,29.95,SSW,205,0.0,0.0,58,0.00,,CLR,0.00,95.00,VWS V14.01,2013-11-07 20:33:00,
2013-11-07 15:38:00,43.5,29.7,29.95,SW,224,0.0,0.0,58,0.00,,CLR,0.00,76.00,VWS V14.01,2013-11-07 20:38:00,
2013-11-07 15:43:00,43.5,30.1,29.95,WNW,289,0.0,0.0,59,0.00,,CLR,0.00,76.00,VWS V14.01,2013-11-07 20:43:00,
2013-11-07 15:48:00,43.3,30.0,29.95,WNW,289,0.0,0.0,59,0.00,,CLR,0.00,62.00,VWS V14.01,2013-11-07 20:48:00,
2013-11-07 15:53:00,43.3,30.0,29.95,WNW,289,0.0,0.0,59,0.00,,CLR,0.00,60.00,VWS V14.01,2013-11-07 20:53:00,
2013-11-07 15:58:00,43.2,30.3,29.95,West,265,1.0,0.0,60,0.00,,CLR,0.00,44.00,VWS V14.01,2013-11-07 20:58:00,
2013-11-07 16:00:00,44.1,31.1,29.95,North,5,0.0,0.0,60,0.00,,OVC041,0.00,54.00,VWS V14.01,2013-11-07 21:00:00,
2013-11-07 16:02:00,43.2,29.9,29.94,West,265,0.0,0.0,59,0.00,,CLR,0.00,44.00,VWS V14.01,2013-11-07 21:02:00,
2013-11-07 16:07:00,43.1,29.8,29.94,NNW,344,0.0,0.0,59,0.00,,CLR,0.00,33.00,VWS V14.01,2013-11-07 21:07:00,
2013-11-07 16:12:00,42.9,30.0,29.94,SSE,153,0.0,0.0,60,0.00,,CLR,0.00,23.00,VWS V14.01,2013-11-07 21:12:00,
2013-11-07 16:17:00,42.9,29.6,29.94,SSW,198,0.0,0.0,59,0.00,,CLR,0.00,28.00,VWS V14.01,2013-11-07 21:17:00,
2013-11-07 16:22:00,42.8,29.9,29.94,SSW,198,0.0,0.0,60,0.00,,CLR,0.00,21.00,VWS V14.01,2013-11-07 21:22:00,
2013-11-07 16:27:00,42.6,30.1,29.94,WSW,255,0.0,0.0,61,0.00,,CLR,0.00,16.00,VWS V14.01,2013-11-07 21:27:00,
2013-11-07 16:30:00,43.3,30.0,29.95,WNW,289,0.0,0.0,59,0.00,,OVC041,0.00,69.00,VWS V14.01,2013-11-07 21:30:00,
2013-11-07 16:32:00,42.6,30.1,29.94,WSW,254,0.0,0.0,61,0.00,,CLR,0.00,12.00,VWS V14.01,2013-11-07 21:32:00,
2013-11-07 16:37:00,42.5,30.0,29.94,West,273,0.0,0.0,61,0.00,,CLR,0.00,7.00,VWS V14.01,2013-11-07 21:37:00,
2013-11-07 16:42:00,42.3,30.6,29.94,WNW,286,0.0,0.0,63,0.00,,CLR,0.00,0.00,VWS V14.01,2013-11-07 21:42:00,
2013-11-07 16:47:00,42.2,31.3,29.95,West,262,0.0,0.0,65,0.00,,CLR,0.00,0.00,VWS V14.01,2013-11-07 21:47:00,
2013-11-07 16:52:00,42.1,31.6,29.95,North,360,1.0,0.0,66,0.00,,CLR,0.00,0.00,VWS V14.01,2013-11-07 21:52:00,
2013-11-07 16:57:00,41.8,31.7,29.95,WSW,247,0.0,0.0,67,0.00,,CLR,0.00,5.00,VWS V14.01,2013-11-07 21:57:00,
2013-11-07 17:00:00,42.9,30.0,29.94,SSW,198,0.0,0.0,60,0.00,,OVC041,0.00,19.00,VWS V14.01,2013-11-07 22:00:00,
2013-11-07 17:02:00,41.6,31.8,29.94,WSW,246,0.0,0.0,68,0.00,,CLR,0.00,5.00,VWS V14.01,2013-11-07 22:02:00,
2013-11-07 17:07:00,41.3,31.5,29.94,WSW,256,1.0,0.0,68,0.00,,CLR,0.00,5.00,VWS V14.01,2013-11-07 22:07:00,
2013-11-07 17:12:00,41.1,31.4,29.94,WSW,254,0.0,0.0,68,0.00,,CLR,0.00,5.00,VWS V14.01,2013-11-07 22:12:00,
2013-11-07 17:17:00,40.9,31.2,29.95,SW,235,0.0,0.0,68,0.00,,CLR,0.00,0.00,VWS V14.01,2013-11-07 22:17:00,
2013-11-07 17:22:00,40.8,31.4,29.95,West,265,0.0,0.0,69,0.00,,OVC055,0.00,0.00,VWS V14.01,2013-11-07 22:22:00,
2013-11-07 17:27:00,40.8,31.4,29.95,WNW,302,0.0,0.0,69,0.00,,OVC055,0.00,0.00,VWS V14.01,2013-11-07 22:27:00,
2013-11-07 17:30:00,42.3,31.0,29.95,WSW,257,0.0,0.0,64,0.00,,OVC041,0.00,0.00,VWS V14.01,2013-11-07 22:30:00,
2013-11-07 17:32:00,40.6,31.6,29.95,SSE,162,0.0,0.0,70,0.00,,OVC055,0.00,0.00,VWS V14.01,2013-11-07 22:32:00,
2013-11-07 17:37:00,40.5,31.9,29.95,NNW,330,0.0,0.0,71,0.00,,OVC055,0.00,0.00,VWS V14.01,2013-11-07 22:37:00,
2013-11-07 17:42:00,40.3,32.0,29.95,WNW,302,0.0,0.0,72,0.00,,OVC055,0.00,0.00,VWS V14.01,2013-11-07 22:42:00,
2013-11-07 17:47:00,40.3,32.0,29.95,SW,215,0.0,0.0,72,0.00,,OVC055,0.00,0.00,VWS V14.01,2013-11-07 22:47:00,
2013-11-07 17:52:00,40.2,31.9,29.95,NE,42,0.0,0.0,72,0.00,,OVC055,0.00,0.00,VWS V14.01,2013-11-07 22:52:00,
2013-11-07 17:57:00,40.1,32.2,29.95,NE,42,0.0,0.0,73,0.00,,OVC055,0.00,0.00,VWS V14.01,2013-11-07 22:57:00,
2013-11-07 18:00:00,41.1,31.4,29.95,WNW,296,0.0,0.0,68,0.00,,OVC041,0.00,0.00,VWS V14.01,2013-11-07 23:00:00,
2013-11-07 18:02:00,40.1,32.2,29.95,NE,53,0.0,0.0,73,0.00,,OVC055,0.00,0.00,VWS V14.01,2013-11-07 23:02:00,
2013-11-07 18:07:00,39.9,32.3,29.95,NE,53,0.0,0.0,74,0.00,,OVC055,0.00,0.00,VWS V14.01,2013-11-07 23:07:00,
2013-11-07 18:12:00,39.9,32.3,29.95,NE,53,0.0,0.0,74,0.00,,OVC055,0.00,0.00,VWS V14.01,2013-11-07 23:12:00,
2013-11-07 18:17:00,39.8,32.5,29.96,NE,53,0.0,0.0,75,0.00,,OVC055,0.00,0.00,VWS V14.01,2013-11-07 23:17:00,
2013-11-07 18:22:00,39.8,32.9,29.96,NE,53,0.0,0.0,76,0.00,,OVC055,0.00,0.00,VWS V14.01,2013-11-07 23:22:00,
2013-11-07 18:27:00,39.6,32.7,29.96,NE,53,0.0,0.0,76,0.00,,OVC055,0.00,0.00,VWS V14.01,2013-11-07 23:27:00,
2013-11-07 18:30:00,40.3,32.0,29.95,SW,220,3.0,0.0,72,0.00,,OVC041,0.00,0.00,VWS V14.01,2013-11-07 23:30:00,
2013-11-07 18:32:00,39.6,32.7,29.96,NE,53,0.0,0.0,76,0.00,,OVC055,0.00,0.00,VWS V14.01,2013-11-07 23:32:00,
2013-11-07 18:37:00,39.5,32.9,29.96,NE,53,0.0,0.0,77,0.00,,OVC055,0.00,0.00,VWS V14.01,2013-11-07 23:37:00,
2013-11-07 18:42:00,39.5,32.9,29.96,NE,53,0.0,0.0,77,0.00,,OVC055,0.00,0.00,VWS V14.01,2013-11-07 23:42:00,
2013-11-07 18:47:00,39.3,33.0,29.97,NE,53,0.0,0.0,78,0.00,,OVC055,0.00,0.00,VWS V14.01,2013-11-07 23:47:00,
2013-11-07 18:52:00,39.2,32.9,29.97,NE,53,0.0,0.0,78,0.00,,OVC055,0.00,0.00,VWS V14.01,2013-11-07 23:52:00,
2013-11-07 18:57:00,39.2,33.2,29.97,NE,53,0.0,0.0,79,0.00,,OVC055,0.00,0.00,VWS V14.01,2013-11-07 23:57:00,
2013-11-07 19:00:00,39.8,32.5,29.96,NE,53,0.0,0.0,75,0.00,,OVC041,0.00,0.00,VWS V14.01,2013-11-08 00:00:00,
2013-11-07 19:02:00,39.1,33.2,29.97,NE,53,0.0,0.0,79,0.00,,-RA,0.00,0.00,VWS V14.01,2013-11-08 00:02:00,
2013-11-07 19:07:00,38.9,33.0,29.97,NE,53,0.0,0.0,79,0.00,,-RA,0.00,0.00,VWS V14.01,2013-11-08 00:07:00,
2013-11-07 19:12:00,38.9,33.3,29.97,NE,53,0.0,0.0,80,0.00,,OVC036,0.00,0.00,VWS V14.01,2013-11-08 00:12:00,
2013-11-07 19:17:00,38.8,33.2,29.97,NE,53,0.0,0.0,80,0.00,,OVC036,0.00,0.00,VWS V14.01,2013-11-08 00:17:00,
2013-11-07 19:22:00,38.6,33.0,29.97,NE,53,0.0,0.0,80,0.00,,OVC036,0.00,0.00,VWS V14.01,2013-11-08 00:22:00,
2013-11-07 19:27:00,38.6,33.3,29.97,NE,53,0.0,0.0,81,0.00,,OVC036,0.00,0.00,VWS V14.01,2013-11-08 00:27:00,
2013-11-07 19:30:00,39.3,33.0,29.97,NE,53,0.0,0.0,78,0.00,,OVC041,0.00,0.00,VWS V14.01,2013-11-08 00:30:00,
2013-11-07 19:32:00,38.5,33.2,29.97,SW,221,0.0,0.0,81,0.00,,BKN036,0.00,0.00,VWS V14.01,2013-11-08 00:32:00,
2013-11-07 19:37:00,38.3,33.0,29.97,SW,221,0.0,0.0,81,0.00,,BKN036,0.00,0.00,VWS V14.01,2013-11-08 00:37:00,
2013-11-07 19:42:00,38.3,33.3,29.97,South,188,0.0,0.0,82,0.00,,BKN036,0.00,0.00,VWS V14.01,2013-11-08 00:42:00,
2013-11-07 19:47:00,38.2,33.2,29.97,SSW,198,0.0,0.0,82,0.00,,BKN036,0.00,0.00,VWS V14.01,2013-11-08 00:47:00,
2013-11-07 19:52:00,38.0,33.0,29.97,SSW,206,0.0,0.0,82,0.00,,BKN036,0.00,0.00,VWS V14.01,2013-11-08 00:52:00,
2013-11-07 19:57:00,37.9,32.9,29.97,SSW,206,0.0,0.0,82,0.00,,BKN036,0.00,0.00,VWS V14.01,2013-11-08 00:57:00,
2013-11-07 20:00:00,38.8,33.2,29.97,NE,53,0.0,0.0,80,0.00,,OVC041,0.00,0.00,VWS V14.01,2013-11-08 01:00:00,
2013-11-07 20:02:00,37.8,32.8,29.97,SSW,213,0.0,0.0,82,0.00,,BKN060,0.00,0.00,VWS V14.01,2013-11-08 01:02:00,
2013-11-07 20:07:00,37.6,32.6,29.97,SSW,213,0.0,0.0,82,0.00,,BKN060,0.00,0.00,VWS V14.01,2013-11-08 01:07:00,
2013-11-07 20:12:00,37.5,32.5,29.97,SSW,213,0.0,0.0,82,0.00,,BKN060,0.00,0.00,VWS V14.01,2013-11-08 01:12:00,
2013-11-07 20:17:00,37.3,32.3,29.97,SSW,213,0.0,0.0,82,0.00,,BKN060,0.00,0.00,VWS V14.01,2013-11-08 01:17:00,
2013-11-07 20:22:00,37.2,32.2,29.97,SSW,213,0.0,0.0,82,0.00,,BKN060,0.00,0.00,VWS V14.01,2013-11-08 01:22:00,
2013-11-07 20:27:00,37.0,32.0,29.97,SSW,213,0.0,0.0,82,0.00,,BKN060,0.00,0.00,VWS V14.01,2013-11-08 01:27:00,
2013-11-07 20:30:00,38.2,33.2,29.97,SSW,198,0.0,0.0,82,0.00,,OVC041,0.00,0.00,VWS V14.01,2013-11-08 01:30:00,
2013-11-07 20:32:00,37.0,32.0,29.97,SSW,213,0.0,0.0,82,0.00,,BKN060,0.00,0.00,VWS V14.01,2013-11-08 01:32:00,
2013-11-07 20:37:00,36.9,31.9,29.97,SSW,213,0.0,0.0,82,0.00,,BKN060,0.00,0.00,VWS V14.01,2013-11-08 01:37:00,
2013-11-07 20:42:00,36.8,31.8,29.97,SSW,213,0.0,0.0,82,0.00,,BKN060,0.00,0.00,VWS V14.01,2013-11-08 01:42:00,
2013-11-07 20:47:00,36.6,31.6,29.97,SSW,213,0.0,0.0,82,0.00,,BKN060,0.00,0.00,VWS V14.01,2013-11-08 01:47:00,
2013-11-07 20:52:00,36.5,31.5,29.97,SSW,213,0.0,0.0,82,0.00,,BKN060,0.00,0.00,VWS V14.01,2013-11-08 01:52:00,
2013-11-07 20:57:00,36.3,31.3,29.97,SSW,213,0.0,0.0,82,0.00,,BKN060,0.00,0.00,VWS V14.01,2013-11-08 01:57:00,
2013-11-07 21:00:00,37.3,32.3,29.97,SSW,213,0.0,0.0,82,0.00,,OVC041,0.00,0.00,VWS V14.01,2013-11-08 02:00:00,
2013-11-07 21:02:00,36.2,31.2,29.98,SSW,213,0.0,0.0,82,0.00,,FEW028,0.00,0.00,VWS V14.01,2013-11-08 02:02:00,
2013-11-07 21:07:00,36.2,31.2,29.98,SSW,213,0.0,0.0,82,0.00,,FEW028,0.00,0.00,VWS V14.01,2013-11-08 02:07:00,
2013-11-07 21:12:00,36.0,31.0,29.98,SSW,213,0.0,0.0,82,0.00,,FEW028,0.00,0.00,VWS V14.01,2013-11-08 02:12:00,
2013-11-07 21:17:00,35.9,31.0,29.98,SSW,213,0.0,0.0,82,0.00,,FEW028,0.00,0.00,VWS V14.01,2013-11-08 02:17:00,
2013-11-07 21:22:00,35.8,30.9,29.98,SSW,213,0.0,0.0,82,0.00,,FEW028,0.00,0.00,VWS V14.01,2013-11-08 02:22:00,
2013-11-07 21:27:00,35.6,31.0,29.98,SSW,213,0.0,0.0,83,0.00,,FEW028,0.00,0.00,VWS V14.01,2013-11-08 02:27:00,
2013-11-07 21:30:00,36.6,31.6,29.97,SSW,213,0.0,0.0,82,0.00,,OVC041,0.00,0.00,VWS V14.01,2013-11-08 02:30:00,
2013-11-07 21:32:00,35.5,30.9,29.98,SSW,213,0.0,0.0,83,0.00,,FEW028,0.00,0.00,VWS V14.01,2013-11-08 02:32:00,
2013-11-07 21:37:00,35.5,30.9,29.98,SSW,213,0.0,0.0,83,0.00,,FEW028,0.00,0.00,VWS V14.01,2013-11-08 02:37:00,
2013-11-07 21:42:00,35.3,30.7,29.98,SSW,213,0.0,0.0,83,0.00,,FEW028,0.00,0.00,VWS V14.01,2013-11-08 02:42:00,
2013-11-07 21:47:00,35.2,30.6,29.98,SSW,213,0.0,0.0,83,0.00,,FEW028,0.00,0.00,VWS V14.01,2013-11-08 02:47:00,
2013-11-07 21:52:00,35.2,30.6,29.98,SSW,213,0.0,0.0,83,0.00,,FEW028,0.00,0.00,VWS V14.01,2013-11-08 02:52:00,
2013-11-07 21:57:00,35.0,30.7,29.98,SSW,213,0.0,0.0,84,0.00,,FEW028,0.00,0.00,VWS V14.01,2013-11-08 02:57:00,
2013-11-07 22:00:00,35.9,31.0,29.98,SSW,213,0.0,0.0,82,0.00,,OVC041,0.00,0.00,VWS V14.01,2013-11-08 03:00:00,
2013-11-07 22:02:00,34.9,30.6,29.98,SSW,213,0.0,0.0,84,0.00,,SCT080,0.00,0.00,VWS V14.01,2013-11-08 03:02:00,
2013-11-07 22:07:00,34.9,30.6,29.98,SSW,213,0.0,0.0,84,0.00,,SCT080,0.00,0.00,VWS V14.01,2013-11-08 03:07:00,
2013-11-07 22:12:00,34.7,30.4,29.98,SSW,213,0.0,0.0,84,0.00,,SCT080,0.00,0.00,VWS V14.01,2013-11-08 03:12:00,
2013-11-07 22:17:00,34.6,30.3,29.98,SSW,213,0.0,0.0,84,0.00,,SCT080,0.00,0.00,VWS V14.01,2013-11-08 03:17:00,
2013-11-07 22:22:00,34.6,30.3,29.98,SSW,213,0.0,0.0,84,0.00,,SCT080,0.00,0.00,VWS V14.01,2013-11-08 03:22:00,
2013-11-07 22:27:00,34.4,30.1,29.98,SSW,213,0.0,0.0,84,0.00,,SCT080,0.00,0.00,VWS V14.01,2013-11-08 03:27:00,
2013-11-07 22:30:00,35.2,30.6,29.98,SSW,213,0.0,0.0,83,0.00,,OVC041,0.00,0.00,VWS V14.01,2013-11-08 03:30:00,
2013-11-07 22:32:00,34.3,30.0,29.98,SSW,213,0.0,0.0,84,0.00,,SCT080,0.00,0.00,VWS V14.01,2013-11-08 03:32:00,
2013-11-07 22:37:00,34.1,29.8,29.98,SSW,213,0.0,0.0,84,0.00,,SCT080,0.00,0.00,VWS V14.01,2013-11-08 03:37:00,
2013-11-07 22:42:00,34.1,30.1,29.98,SSW,213,0.0,0.0,85,0.00,,SCT080,0.00,0.00,VWS V14.01,2013-11-08 03:42:00,
2013-11-07 22:47:00,34.1,30.1,29.98,SSW,213,0.0,0.0,85,0.00,,SCT080,0.00,0.00,VWS V14.01,2013-11-08 03:47:00,
2013-11-07 22:52:00,34.0,30.0,29.98,SSW,213,0.0,0.0,85,0.00,,SCT080,0.00,0.00,VWS V14.01,2013-11-08 03:52:00,
2013-11-07 22:57:00,34.0,30.0,29.98,SSW,213,0.0,0.0,85,0.00,,SCT080,0.00,0.00,VWS V14.01,2013-11-08 03:57:00,
2013-11-07 23:00:00,34.6,30.3,29.98,SSW,213,0.0,0.0,84,0.00,,OVC041,0.00,0.00,VWS V14.01,2013-11-08 04:00:00,
2013-11-07 23:02:00,34.0,30.3,29.98,SSW,213,0.0,0.0,86,0.00,,OVC075,0.00,0.00,VWS V14.01,2013-11-08 04:02:00,
2013-11-07 23:07:00,34.0,30.3,29.98,SSW,213,0.0,0.0,86,0.00,,OVC075,0.00,0.00,VWS V14.01,2013-11-08 04:07:00,
2013-11-07 23:12:00,34.1,30.4,29.98,SSW,213,0.0,0.0,86,0.00,,OVC075,0.00,0.00,VWS V14.01,2013-11-08 04:12:00,
2013-11-07 23:17:00,34.1,30.6,29.98,SSW,213,0.0,0.0,87,0.00,,OVC075,0.00,0.00,VWS V14.01,2013-11-08 04:17:00,
2013-11-07 23:22:00,34.1,30.6,29.98,SSW,213,0.0,0.0,87,0.00,,OVC075,0.00,0.00,VWS V14.01,2013-11-08 04:22:00,
2013-11-07 23:27:00,34.1,30.6,29.98,SSW,213,0.0,0.0,87,0.00,,OVC075,0.00,0.00,VWS V14.01,2013-11-08 04:27:00,
2013-11-07 23:30:00,34.1,30.1,29.98,SSW,213,0.0,0.0,85,0.00,,OVC041,0.00,0.00,VWS V14.01,2013-11-08 04:30:00,
2013-11-07 23:32:00,34.0,30.5,29.98,SSW,213,0.0,0.0,87,0.00,,OVC075,0.00,0.00,VWS V14.01,2013-11-08 04:32:00,
2013-11-07 23:37:00,34.0,30.5,29.98,SSW,213,0.0,0.0,87,0.00,,OVC075,0.00,0.00,VWS V14.01,2013-11-08 04:37:00,
2013-11-07 23:42:00,34.0,30.5,29.98,SSW,213,0.0,0.0,87,0.00,,OVC075,0.00,0.00,VWS V14.01,2013-11-08 04:42:00,
2013-11-07 23:47:00,33.8,30.4,29.98,SSW,213,0.0,0.0,87,0.00,,OVC075,0.00,0.00,VWS V14.01,2013-11-08 04:47:00,
2013-11-07 23:52:00,33.8,30.4,29.98,SSW,213,0.0,0.0,87,0.00,,OVC075,0.00,0.00,VWS V14.01,2013-11-08 04:52:00,
2013-11-07 23:57:00,33.8,30.4,29.98,SSW,213,0.0,0.0,87,0.00,,OVC075,0.00,0.00,VWS V14.01,2013-11-08 04:57:00,